Tracking 19832 objects as of 25-Aug-2019
HD Live streaming from Space Station
objects crossing your sky now

TRAAC

Track TRAAC now!
10-day predictions
TRAAC is classified as:


NORAD ID: 205
Int'l Code: 1961-031B
Perigee: 958.5 km
Apogee: 1,109.7 km
Inclination: 32.4 °
Period: 105.7 minutes
Semi major axis: 7405 km
RCS: 0.57 m2 (medium)
Launch date: November 15, 1961
Source: United States (US)
Launch site: AIR FORCE EASTERN TEST RANGE (AFETR)
aabbcc
Your satellite tracking list
Your tracking list is empty




NASA's NSSDC Master Catalog

Two Line Element Set (TLE):
1   205U 61031B   19236.75134517 +.00000028 +00000-0 +52673-5 0  9990
2   205 032.4419 353.9369 0102082 194.3691 165.4016 13.62406421879495
Source of the keplerian elements: AFSPC